Header for Extended Forecast Station List Page

Search by: ID | Name | Date | Parm | Value | Avg | % Avg
Sort by: ID | Name | Date | Parm | Value | Avg | % Avg

Enter search or view all records.

Click on id for station plot
#IDNameDateParmValueAvg% Avg
0HWRI1BIG LOST-AT HOWELL RANCH NEAR CHILLY04-21-2014DISCHARGE (KAF)9415959
1MACI1BIG LOST-MACKAY RESERVOIR NEAR MACKAY04-21-2014INFLOW (KAF)8415953
2HALI1BIG WOOD-AT HAILEY04-21-2014DISCHARGE (KAF)18922186
3MAGI1BIG WOOD-MAGIC DAM04-21-2014INFLOW (KAF)14819377
4BITM8BITTERROOT-NEAR MISSOULA04-21-2014DISCHARGE (KAF)15371146134
5BONM8BLACKFOOT-NEAR BONNER04-21-2014DISCHARGE (KAF)1188762156
6BIGI1BOISE-AT GLENWOOD BRIDGE04-21-2014DISCHARGE (KAF)24143456
7LUCI1BOISE-LUCKY PEAK DAM04-21-2014INFLOW (KAF)959MM
8PARI1BOISE-NEAR PARMA04-21-2014DISCHARGE (KAF)20038652
9HOTI1BRUNEAU-NEAR HOT SPRINGS04-21-2014DISCHARGE (KAF)7115546
10BULO3BULLY CREEK-BULLY CREEK DAM04-21-2014INFLOW (KAF)0145
11BUDW1BUMPING-BUMPING LAKE DAM04-21-2014INFLOW (KAF)7610573
12CHDW1CHELAN-LAKE CHELAN DAM04-21-2014INFLOW (KAF)93196497
13ABOM8CLARK FORK-ABOVE MISSOULA04-21-2014DISCHARGE (KAF)19751340147
14DLGM8CLARK FORK-AT DEER LODGE04-21-2014DISCHARGE (KAF)8070114
15SRGM8CLARK FORK-AT ST REGIS04-21-2014DISCHARGE (KAF)43393361129
16BELM8CLARK FORK-BELOW MISSOULA04-21-2014DISCHARGE (KAF)35122527139
17CABI1CLARK FORK-CABINET GORGE DAM04-21-2014INFLOW (KAF)108618846123
18NOXM8CLARK FORK-NOXON RAPIDS DAM04-21-2014INFLOW (KAF)98628356118
19DRMM8CLARK FORK-NR DRUMMOND04-21-2014DISCHARGE (KAF)303MM
20CLUW1CLE ELUM-CLE ELUM LAKE04-21-2014INFLOW (KAF)378347109
21ORFI1CLEARWATER-AT OROFINO04-21-2014DISCHARGE (KAF)49654036123
22SPDI1CLEARWATER-AT SPALDING04-21-2014DISCHARGE (KAF)68435996114
23COEI1COEUR D ALENE-COEUR D ALENE LAKE04-21-2014INFLOW (KAF)21611995108
24CIBW1COLUMBIA-AT INTL BOUNDARY04-21-2014DISCHARGE (KAF)33675MM
25BONO3COLUMBIA-BONNEVILLE DAM04-21-2014INFLOW (KAF)58523MM
26CHJW1COLUMBIA-CHIEF JOSEPH DAM04-21-2014INFLOW (KAF)3350331354107
27GCDW1COLUMBIA-GRAND COULEE DAM04-21-2014INFLOW (KAF)379704167091
28JDAO3COLUMBIA-JOHN DAY DAM04-21-2014INFLOW (KAF)574786330791
29MCDW1COLUMBIA-MCNARY DAM04-21-2014INFLOW (KAF)560836167891
30PRWW1COLUMBIA-PRIEST RAPIDS DAM04-21-2014INFLOW (KAF)380214221390
31RRHW1COLUMBIA-ROCKY REACH DAM04-21-2014INFLOW (KAF)3664734514106
32TDAO3COLUMBIA-THE DALLES DAM04-21-2014INFLOW (KAF)5774856827102
33WANW1COLUMBIA-WANAPUM DAM04-21-2014INFLOW (KAF)380174135892
34WELW1COLUMBIA-WELLS DAM04-21-2014INFLOW (KAF)3589833935106
35DEDI1DEADWOOD-NEAR LOWMAN04-21-2014INFLOW (KAF)10712686
36MODO3DESCHUTES-AT MOODY NR BIGGS04-21-2014DISCHARGE (KAF)1241125399
37ARDW1ENTIAT-NEAR ARDENVOIR04-21-2014DISCHARGE (KAF)215191113
38CHEI1FALLS-NEAR CHESTER04-21-2014DISCHARGE (KAF)352299118
39CFMM8FLATHEAD-AT COLUMBIA FALLS04-21-2014DISCHARGE (KAF)46553962117
40KERM8FLATHEAD-KERR DAM04-21-2014INFLOW (KAF)56154930114
41TRYO3GRANDE RONDE-TROY04-21-2014DISCHARGE (KAF)10161002101
42REXI1HENRYS FORK-AT REXBURG04-21-2014DISCHARGE (KAF)800681117
43ANTI1HENRYS FORK-AT ST. ANTHONY04-21-2014DISCHARGE (KAF)634594107
44IPDI1HENRYS FORK-ISLAND PARK DAM04-21-2014INFLOW (KAF)17820786
45HODO3HOOD-NEAR TUCKER BRIDGE04-21-2014DISCHARGE (KAF)15817988
46SERO3JOHN DAY-AT SERVICE CK04-21-2014DISCHARGE (KAF)35457362
47KADW1KACHESS-KACHESS DAM04-21-2014INFLOW (KAF)848895
48LAUW1KETTLE-AT LAURIER04-21-2014DISCHARGE (KAF)17761603111
49PITW1KLICKITAT-NEAR PITT04-21-2014DISCHARGE (KAF)35740788
50BFEI1KOOTENAI-AT BONNERS FERRY04-21-2014STAGE (FT)MMM
51LEOI1KOOTENAI-AT LEONIA04-21-2014DISCHARGE (KAF)5121521898
52LYDM8KOOTENAI-LIBBY DAM04-21-2014INFLOW (KAF)60495761105
53LWRI1LITTLE WOOD-LITTLE WOOD DAM04-21-2014INFLOW (KAF)236635
54BERO3MALHEUR-AGENCY VALLEY DAM04-21-2014INFLOW (KAF)132846
55VALO3MALHEUR-NEAR VALE04-21-2014DISCHARGE (KAF)0421
56WRMO3MALHEUR-WARM SPRINGS DAM04-21-2014INFLOW (KAF)151978
57MYKO3MCKAY CREEK-NEAR PILOT ROCK04-21-2014DISCHARGE (KAF)1511140
58PATW1METHOW-NEAR PATEROS04-21-2014DISCHARGE (KAF)895805111
59WGCM8MF FLATHEAD-NEAR WEST GLACIER04-21-2014DISCHARGE (KAF)18631505124
60CLFW1NACHES-NEAR CLIFFDEL04-21-2014DISCHARGE (KAF)30832296
61NACW1NACHES-NEAR NACHES04-21-2014DISCHARGE (KAF)503453111
62DWRI1NF CLEARWATER-DWORSHAK DAM04-21-2014INFLOW (KAF)26262269116
63FCFM8NF FLATHEAD-NEAR COLUMBIA FALLS04-21-2014DISCHARGE (KAF)17761552114
64MONO3NF JOHN DAY-AT MONUMENT04-21-2014DISCHARGE (KAF)23741158
65CSDI1NF PAYETTE-CASCADE DAM04-21-2014INFLOW (KAF)434429101
66TONW1OKANOGAN-NEAR TONASKET04-21-2014DISCHARGE (KAF)14931390107
67OWYO3OWYHEE-BELOW OWYHEE DAM04-21-2014INFLOW (KAF)4819725
68EMMI1PAYETTE-NEAR EMMETT04-21-2014DISCHARGE (KAF)957108288
69ALFW1PEND OREILLE-ALBENI FALLS DAM04-21-2014INFLOW (KAF)1154310203113
70HOPI1PEND OREILLE-PEND OREILLE LAKE NR HOPE04-21-2014LAKE ELEVATION (FT)MMM
71PIHI1PORTNEUF-AT POCATELLO04-21-2014DISCHARGE (KAF)246139
72PRTI1PRIEST-NEAR PRIEST RIVER04-21-2014DISCHARGE (KAF)60969288
73RCCM8ROCK CREEK-NEAR CLINTON04-21-2014DISCHARGE (KAF)404251161
74WHBI1SALMON-AT WHITEBIRD04-21-2014DISCHARGE (KAF)56645444104
75ARAI1SF BOISE-ANDERSON RANCH DAM04-21-2014INFLOW (KAF)36445081
76HHWM8SF FLATHEAD-HUNGRY HORSE DAM04-21-2014INFLOW (KAF)20101807111
77PLDI1SF SNAKE-PALISADES DAM04-21-2014INFLOW (KAF)33622966113
78SIFI1SNAKE-AB EAGLE ROCK NR IDAHO FALLS04-21-2014DISCHARGE (KAF)25812444106
79AFRI1SNAKE-AMERICAN FALLS RESERVOIR04-21-2014INFLOW (KAF)22242215100
80SNAI1SNAKE-AT BLACKFOOT04-21-2014DISCHARGE (KAF)17891715104
81MILI1SNAKE-AT MILNER04-21-2014DISCHARGE (KAF)4125816
82WEII1SNAKE-AT WEISER04-21-2014DISCHARGE (KAF)2879422168
83SWAI1SNAKE-BELOW SWAN FALLS04-21-2014DISCHARGE (KAF)1461216567
84BRNI1SNAKE-BROWNLEE DAM04-21-2014INFLOW (KAF)3248453272
85IHDW1SNAKE-ICE HARBOR DAM04-21-2014INFLOW (KAF)171901780697
86JLKW4SNAKE-JACKSON LAKE AT DAM04-21-2014INFLOW (KAF)1015755134
87LGSW1SNAKE-LITTLE GOOSE DAM04-21-2014INFLOW (KAF)171421787196
88LGDW1SNAKE-LOWER GRANITE DAM04-21-2014INFLOW (KAF)171441785696
89LMNW1SNAKE-LOWER MONUMENTAL DAM04-21-2014INFLOW (KAF)171841791096
90ALPW4SNAKE-NEAR ALPINE04-21-2014DISCHARGE (KAF)23982090115
91ANAW1SNAKE-NEAR ANATONE04-21-2014DISCHARGE (KAF)103011180287
92BFTI1SNAKE-NEAR BLACKFOOT04-21-2014DISCHARGE (KAF)17331599108
93HEII1SNAKE-NEAR HEISE04-21-2014DISCHARGE (KAF)31863089103
94JKSW4SNAKE-NEAR JACKSON04-21-2014DISCHARGE (KAF)18601627114
95SHYI1SNAKE-NEAR SHELLEY04-21-2014DISCHARGE (KAF)23492220106
96LLKW1SPOKANE-AT LONGLAKE04-21-2014INFLOW (KAF)2436248398
97SPOW1SPOKANE-AT SPOKANE04-21-2014DISCHARGE (KAF)2219MM
98SJMI1ST JOE-AT ST MARIES04-21-2014STAGE (FT)MMM
99SATI1ST MARIES-NEAR SANTA04-21-2014DISCHARGE (KAF)749776
100STRM8ST. REGIS-NEAR ST. REGIS04-21-2014DISCHARGE (KAF)248218114
101TNAW1TEANAWAY-BELOW FORKS04-21-2014DISCHARGE (KAF)8986103
102TEAI1TETON-NEAR ST. ANTHONY04-21-2014DISCHARGE (KAF)442339130
103RILW1TIETON-RIMROCK LAKE NEAR RIMROCK04-21-2014INFLOW (KAF)192180107
104PDTO3UMATILLA-AT PENDLETON04-21-2014DISCHARGE (KAF)778590
105GIBO3UMATILLA-NEAR GIBBON04-21-2014DISCHARGE (KAF)464994
106UMAO3UMATILLA-NEAR UMATILLA04-21-2014DISCHARGE (KAF)7340182
107TCHW1WALLA WALLA-NEAR TOUCHET04-21-2014DISCHARGE (KAF)597084
108WSRI1WEISER-NEAR WEISER04-21-2014DISCHARGE (KAF)18428265
109PESW1WENATCHEE-AT PESHASTIN04-21-2014DISCHARGE (KAF)14021337105
110UNDW1WHITE SALMON-NEAR UNDERWOOD04-21-2014DISCHARGE (KAF)23627785
111RIDI1WILLOW CREEK-RIRIE DAM04-21-2014INFLOW (KAF)6334182
112EASW1YAKIMA-AT EASTON04-21-2014DISCHARGE (KAF)15790175
113KIOW1YAKIMA-AT KIONA04-21-2014DISCHARGE (KAF)67371994
114UMTW1YAKIMA-AT UMTANUM04-21-2014DISCHARGE (KAF)76180095
115KEDW1YAKIMA-KEECHELUS LAKE04-21-2014INFLOW (KAF)9795101
116PARW1YAKIMA-NEAR PARKER04-21-2014DISCHARGE (KAF)391377104